EXS1426 LFST-EGSS

Flight info

Callsign EXS1426
Flight time 1h 10m
Altitude 38000
Route GTQ DCT DENOX DCT KEGIT DCT INLOD DCT TOSVA
Aircraft A21N/M-SDE2E3FGHIRWXY/LB1

Departure

Time 2026-05-08 19:52
Airport Strasbourg Airport (LFST)

Arrival

Time 2026-05-08 21:02
Airport London Stansted Airport (EGSS)
Time Latitude Longitude Altitude Speed Heading
2026-05-08 19:28 48.54222 7.62550 518 ft 0 kts 334°
2026-05-08 19:45 48.54228 7.62551 517 ft 2 kts 18°
2026-05-08 19:46 48.54222 7.62583 517 ft 4 kts 133°
2026-05-08 19:46 48.54208 7.62631 517 ft 6 kts 79°
2026-05-08 19:46 48.54282 7.62758 517 ft 10 kts 83°
2026-05-08 19:47 48.54255 7.62825 517 ft 7 kts 135°
2026-05-08 19:47 48.54216 7.62881 517 ft 8 kts 137°
2026-05-08 19:47 48.54169 7.62943 517 ft 10 kts 148°
2026-05-08 19:47 48.54105 7.62895 517 ft 12 kts 228°
2026-05-08 19:48 48.54045 7.62792 517 ft 14 kts 229°
2026-05-08 19:48 48.53975 7.62674 517 ft 16 kts 229°
2026-05-08 19:48 48.53897 7.62540 517 ft 18 kts 229°
2026-05-08 19:48 48.53840 7.62443 517 ft 12 kts 229°
2026-05-08 19:49 48.53779 7.62337 517 ft 14 kts 229°
2026-05-08 19:49 48.53708 7.62216 517 ft 16 kts 229°
2026-05-08 19:49 48.53629 7.62081 517 ft 18 kts 229°
2026-05-08 19:49 48.53543 7.61935 517 ft 20 kts 229°
2026-05-08 19:50 48.53450 7.61774 517 ft 21 kts 229°
2026-05-08 19:50 48.53351 7.61602 517 ft 19 kts 229°
2026-05-08 19:50 48.53259 7.61472 517 ft 15 kts 178°
2026-05-08 19:50 48.53171 7.61557 517 ft 16 kts 142°
2026-05-08 19:51 48.53150 7.61657 517 ft 9 kts 50°
2026-05-08 19:51 48.53153 7.61662 517 ft 0 kts 49°
2026-05-08 19:51 48.53256 7.61838 516 ft 59 kts 49°
2026-05-08 19:51 48.53681 7.62567 517 ft 123 kts 47°
2026-05-08 19:52 48.54320 7.63686 764 ft 141 kts 48°
2026-05-08 19:52 48.54950 7.64789 1216 ft 141 kts 49°
2026-05-08 19:52 48.55598 7.65917 1661 ft 144 kts 49°
2026-05-08 19:52 48.56278 7.67095 2122 ft 157 kts 51°
2026-05-08 19:53 48.57039 7.68414 2667 ft 176 kts 51°
2026-05-08 19:53 48.57598 7.69398 3069 ft 188 kts 51°
2026-05-08 19:53 48.58501 7.70963 3714 ft 205 kts 51°
2026-05-08 19:53 48.59924 7.72957 4780 ft 218 kts 29°
2026-05-08 19:54 48.60904 7.73418 5335 ft 223 kts
2026-05-08 19:54 48.62442 7.73097 6160 ft 227 kts 336°
2026-05-08 19:54 48.63667 7.71617 7014 ft 227 kts 304°
2026-05-08 19:54 48.64224 7.69467 7864 ft 223 kts 274°
2026-05-08 19:55 48.64008 7.67186 8750 ft 221 kts 246°
2026-05-08 19:55 48.63206 7.65208 9681 ft 220 kts 234°
2026-05-08 19:55 48.62311 7.63307 10552 ft 222 kts 235°
2026-05-08 19:55 48.61426 7.61384 11344 ft 224 kts 236°
2026-05-08 19:56 48.60535 7.59429 12131 ft 227 kts 236°
2026-05-08 19:56 48.59645 7.57467 12895 ft 230 kts 236°
2026-05-08 19:56 48.58738 7.55452 13657 ft 233 kts 238°
2026-05-08 19:56 48.58055 7.53224 14314 ft 237 kts 255°
2026-05-08 19:57 48.58077 7.50647 14590 ft 259 kts 278°
2026-05-08 19:57 48.58471 7.47856 14858 ft 283 kts 281°
2026-05-08 19:57 48.58912 7.44869 15129 ft 305 kts 282°
2026-05-08 19:57 48.59655 7.41722 15389 ft 329 kts 295°
2026-05-08 19:58 48.60993 7.38775 15659 ft 352 kts 308°
2026-05-08 19:58 48.62659 7.35909 15930 ft 370 kts 310°
2026-05-08 19:58 48.64412 7.32940 16254 ft 384 kts 309°
2026-05-08 19:58 48.66191 7.29885 16811 ft 388 kts 309°
2026-05-08 19:59 48.67952 7.26822 17396 ft 392 kts 309°
2026-05-08 19:59 48.69745 7.23683 18036 ft 395 kts 309°
2026-05-08 19:59 48.71549 7.20514 18611 ft 398 kts 309°
2026-05-08 19:59 48.73363 7.17322 19141 ft 401 kts 309°
2026-05-08 20:00 48.75192 7.14097 19675 ft 403 kts 309°
2026-05-08 20:00 48.77003 7.10902 20192 ft 406 kts 308°
2026-05-08 20:00 48.78847 7.07630 20710 ft 408 kts 308°
2026-05-08 20:00 48.80677 7.04320 21222 ft 411 kts 308°
2026-05-08 20:01 48.82524 7.00967 21736 ft 414 kts 308°
2026-05-08 20:01 48.84378 6.97601 22248 ft 417 kts 308°
2026-05-08 20:01 48.86243 6.94217 22761 ft 419 kts 308°
2026-05-08 20:01 48.88127 6.90795 23260 ft 423 kts 308°
2026-05-08 20:02 48.89997 6.87394 23738 ft 426 kts 308°
2026-05-08 20:02 48.91904 6.83922 24181 ft 429 kts 308°
2026-05-08 20:02 48.93822 6.80429 24640 ft 431 kts 308°
2026-05-08 20:02 48.95753 6.76906 25112 ft 433 kts 308°
2026-05-08 20:03 48.97699 6.73361 25576 ft 435 kts 308°
2026-05-08 20:03 48.99790 6.70076 26016 ft 439 kts 315°
2026-05-08 20:03 49.02079 6.66967 26464 ft 441 kts 316°
2026-05-08 20:03 49.04396 6.63859 26899 ft 443 kts 316°
2026-05-08 20:04 49.06718 6.60738 27312 ft 445 kts 317°
2026-05-08 20:04 49.09043 6.57605 27805 ft 444 kts 317°
2026-05-08 20:04 49.11324 6.54523 28377 ft 442 kts 316°
2026-05-08 20:04 49.13623 6.51410 28844 ft 442 kts 317°
2026-05-08 20:05 49.15924 6.48285 29241 ft 443 kts 317°
2026-05-08 20:05 49.18228 6.45154 29763 ft 442 kts 317°
2026-05-08 20:05 49.20522 6.42034 30258 ft 440 kts 317°
2026-05-08 20:05 49.22811 6.38913 30702 ft 438 kts 317°
2026-05-08 20:06 49.25082 6.35823 31150 ft 436 kts 317°
2026-05-08 20:06 49.27347 6.32738 31590 ft 434 kts 317°
2026-05-08 20:06 49.29572 6.29697 32016 ft 433 kts 317°
2026-05-08 20:06 49.31818 6.26623 32445 ft 431 kts 317°
2026-05-08 20:07 49.34056 6.23559 32848 ft 429 kts 317°
2026-05-08 20:07 49.36270 6.20514 33388 ft 425 kts 317°
2026-05-08 20:07 49.38465 6.17496 33783 ft 423 kts 317°
2026-05-08 20:07 49.40654 6.14477 34107 ft 423 kts 317°
2026-05-08 20:08 49.42838 6.11451 34362 ft 423 kts 317°
2026-05-08 20:08 49.44996 6.08454 34591 ft 423 kts 317°
2026-05-08 20:08 49.47189 6.05411 34822 ft 423 kts 317°
2026-05-08 20:08 49.49385 6.02374 35040 ft 424 kts 317°
2026-05-08 20:09 49.51579 5.99342 35260 ft 424 kts 317°
2026-05-08 20:09 49.53783 5.96294 35474 ft 425 kts 317°
2026-05-08 20:09 49.55981 5.93251 35675 ft 425 kts 317°
2026-05-08 20:09 49.58189 5.90186 35869 ft 426 kts 317°
2026-05-08 20:10 49.60365 5.87160 36071 ft 426 kts 317°
2026-05-08 20:10 49.62578 5.84088 36206 ft 428 kts 317°
2026-05-08 20:10 49.64791 5.81006 36474 ft 426 kts 317°
2026-05-08 20:10 49.66988 5.77936 36701 ft 426 kts 317°
2026-05-08 20:11 49.69182 5.74861 36891 ft 426 kts 317°
2026-05-08 20:11 49.71377 5.71786 37065 ft 426 kts 317°
2026-05-08 20:11 49.73576 5.68710 37228 ft 427 kts 317°
2026-05-08 20:11 49.75754 5.65657 37403 ft 427 kts 317°
2026-05-08 20:12 49.77959 5.62574 37567 ft 428 kts 317°
2026-05-08 20:12 49.80168 5.59482 37733 ft 428 kts 317°
2026-05-08 20:12 49.82379 5.56374 37901 ft 429 kts 316°
2026-05-08 20:12 49.84589 5.53261 38059 ft 429 kts 317°
2026-05-08 20:13 49.89021 5.46996 38151 ft 431 kts 316°
2026-05-08 20:13 49.93434 5.40733 38123 ft 428 kts 316°
2026-05-08 20:14 49.97788 5.34502 38119 ft 427 kts 316°
2026-05-08 20:14 50.02162 5.28246 38114 ft 427 kts 316°
2026-05-08 20:15 50.06545 5.21979 38121 ft 427 kts 316°
2026-05-08 20:15 50.10907 5.15741 38124 ft 427 kts 316°
2026-05-08 20:16 50.15285 5.09457 38121 ft 428 kts 316°
2026-05-08 20:16 50.19664 5.03170 38116 ft 427 kts 316°
2026-05-08 20:17 50.24008 4.96908 38121 ft 425 kts 316°
2026-05-08 20:17 50.28330 4.90671 38115 ft 425 kts 316°
2026-05-08 20:18 50.32672 4.84380 38130 ft 424 kts 316°
2026-05-08 20:18 50.37007 4.78077 38122 ft 424 kts 316°
2026-05-08 20:19 50.41339 4.71772 38122 ft 424 kts 316°
2026-05-08 20:19 50.45622 4.65503 38115 ft 424 kts 316°
2026-05-08 20:20 50.49927 4.59171 38114 ft 421 kts 316°
2026-05-08 20:20 50.54221 4.52867 38112 ft 421 kts 316°
2026-05-08 20:21 50.58504 4.46554 38116 ft 421 kts 316°
2026-05-08 20:21 50.62764 4.40269 38125 ft 421 kts 316°
2026-05-08 20:22 50.67078 4.33908 38136 ft 421 kts 316°
2026-05-08 20:22 50.70634 4.28646 38143 ft 421 kts 316°
2026-05-08 20:23 50.75605 4.21236 38144 ft 421 kts 316°
2026-05-08 20:23 50.79876 4.14868 38144 ft 421 kts 316°
2026-05-08 20:24 50.84102 4.08543 38144 ft 421 kts 316°
2026-05-08 20:24 50.88332 4.02091 38125 ft 421 kts 313°
2026-05-08 20:25 50.92323 3.95269 38130 ft 421 kts 312°
2026-05-08 20:25 50.96291 3.88426 38157 ft 421 kts 312°
2026-05-08 20:26 51.00227 3.81621 38130 ft 421 kts 312°
2026-05-08 20:26 51.04196 3.74752 38120 ft 421 kts 311°
2026-05-08 20:27 51.08164 3.67858 38139 ft 421 kts 312°
2026-05-08 20:27 51.12118 3.60980 38136 ft 421 kts 312°
2026-05-08 20:28 51.16038 3.54107 38137 ft 421 kts 311°
2026-05-08 20:28 51.19986 3.47174 38135 ft 421 kts 311°
2026-05-08 20:29 51.23916 3.40265 38121 ft 422 kts 311°
2026-05-08 20:29 51.27866 3.33318 38112 ft 421 kts 311°
2026-05-08 20:30 51.31792 3.26417 38125 ft 422 kts 311°
2026-05-08 20:30 51.35734 3.19448 38122 ft 422 kts 311°
2026-05-08 20:31 51.37696 3.15976 37941 ft 417 kts 311°
2026-05-08 20:31 51.39594 3.12458 37657 ft 418 kts 307°
2026-05-08 20:31 51.41139 3.08515 37383 ft 418 kts 296°
2026-05-08 20:31 51.42250 3.04254 37123 ft 419 kts 291°
2026-05-08 20:32 51.43264 2.99858 36682 ft 417 kts 291°
2026-05-08 20:32 51.44263 2.95492 36090 ft 416 kts 292°
2026-05-08 20:32 51.45270 2.91128 35480 ft 415 kts 292°
2026-05-08 20:32 51.46275 2.86797 34859 ft 415 kts 292°
2026-05-08 20:33 51.47288 2.82444 34190 ft 416 kts 292°
2026-05-08 20:33 51.48299 2.78087 33433 ft 417 kts 292°
2026-05-08 20:33 51.49296 2.73773 32741 ft 417 kts 292°
2026-05-08 20:33 51.50305 2.69411 32020 ft 417 kts 292°
2026-05-08 20:34 51.51316 2.65026 31309 ft 417 kts 292°
2026-05-08 20:34 51.52324 2.60645 30624 ft 418 kts 292°
2026-05-08 20:34 51.54331 2.51900 29033 ft 420 kts 291°
2026-05-08 20:35 51.55354 2.47477 28343 ft 429 kts 292°
2026-05-08 20:35 51.56397 2.42968 27695 ft 429 kts 291°
2026-05-08 20:35 51.57083 2.39988 27244 ft 427 kts 291°
2026-05-08 20:35 51.58609 2.34177 26351 ft 423 kts 298°
2026-05-08 20:36 51.60006 2.30022 25700 ft 421 kts 299°
2026-05-08 20:36 51.60957 2.27238 25296 ft 419 kts 299°
2026-05-08 20:36 51.62361 2.23130 24668 ft 417 kts 299°
2026-05-08 20:36 51.63741 2.19078 24043 ft 416 kts 299°
2026-05-08 20:37 51.65131 2.14993 23362 ft 415 kts 299°
2026-05-08 20:37 51.66581 2.10970 22666 ft 413 kts 304°
2026-05-08 20:37 51.68432 2.07466 22111 ft 408 kts 317°
2026-05-08 20:37 51.70719 2.04778 21693 ft 409 kts 329°
2026-05-08 20:38 51.73221 2.02611 21397 ft 406 kts 332°
2026-05-08 20:38 51.75730 2.00506 21116 ft 405 kts 331°
2026-05-08 20:38 51.78199 1.98426 20806 ft 403 kts 331°
2026-05-08 20:38 51.80666 1.96319 20287 ft 400 kts 330°
2026-05-08 20:39 51.83118 1.94206 19702 ft 398 kts 330°
2026-05-08 20:39 51.85564 1.92096 19143 ft 397 kts 330°
2026-05-08 20:39 51.87982 1.89907 18595 ft 396 kts 325°
2026-05-08 20:39 51.90049 1.86997 18008 ft 393 kts 309°
2026-05-08 20:40 51.91542 1.83341 17598 ft 387 kts 297°
2026-05-08 20:40 51.92782 1.79558 17259 ft 382 kts 296°
2026-05-08 20:40 51.94003 1.75757 16942 ft 376 kts 296°
2026-05-08 20:40 51.95212 1.72028 16623 ft 371 kts 296°
2026-05-08 20:41 51.96413 1.68355 16312 ft 366 kts 296°
2026-05-08 20:41 51.97603 1.64736 15995 ft 361 kts 296°
2026-05-08 20:41 51.98788 1.61161 15685 ft 357 kts 296°
2026-05-08 20:41 51.99955 1.57628 15370 ft 353 kts 296°
2026-05-08 20:42 52.01091 1.54174 15067 ft 349 kts 296°
2026-05-08 20:42 52.02229 1.50689 14754 ft 348 kts 296°
2026-05-08 20:42 52.03363 1.47210 14462 ft 347 kts 296°
2026-05-08 20:42 52.04492 1.43746 14168 ft 345 kts 296°
2026-05-08 20:43 52.05612 1.40301 13854 ft 344 kts 296°
2026-05-08 20:43 52.06728 1.36866 13527 ft 342 kts 296°
2026-05-08 20:43 52.07836 1.33447 13213 ft 340 kts 296°
2026-05-08 20:43 52.08913 1.30104 12905 ft 338 kts 296°
2026-05-08 20:44 52.10001 1.26734 12609 ft 335 kts 296°
2026-05-08 20:44 52.11062 1.23357 12321 ft 334 kts 293°
2026-05-08 20:44 52.11594 1.19725 12024 ft 326 kts 270°
2026-05-08 20:44 52.11237 1.16158 11825 ft 313 kts 254°
2026-05-08 20:45 52.10627 1.12828 11681 ft 302 kts 253°
2026-05-08 20:45 52.10025 1.09425 11502 ft 314 kts 255°
2026-05-08 20:45 52.09460 1.06060 11337 ft 302 kts 255°
2026-05-08 20:45 52.08925 1.02876 11184 ft 290 kts 255°
2026-05-08 20:46 52.08399 0.99745 11051 ft 285 kts 255°
2026-05-08 20:46 52.07874 0.96630 10923 ft 286 kts 255°
2026-05-08 20:46 52.07347 0.93512 10794 ft 285 kts 255°
2026-05-08 20:46 52.06822 0.90422 10638 ft 281 kts 255°
2026-05-08 20:47 52.06307 0.87396 10457 ft 275 kts 255°
2026-05-08 20:47 52.05802 0.84428 10287 ft 269 kts 255°
2026-05-08 20:47 52.05304 0.81509 10042 ft 267 kts 255°
2026-05-08 20:47 52.04807 0.78602 9719 ft 266 kts 255°
2026-05-08 20:48 52.04313 0.75717 9399 ft 265 kts 255°
2026-05-08 20:48 52.03824 0.72876 9098 ft 264 kts 255°
2026-05-08 20:48 52.03331 0.70006 8797 ft 262 kts 255°
2026-05-08 20:48 52.02846 0.67191 8594 ft 254 kts 255°
2026-05-08 20:49 52.02380 0.64482 8447 ft 243 kts 255°
2026-05-08 20:49 52.01928 0.61862 8274 ft 239 kts 254°
2026-05-08 20:49 52.01557 0.59235 8114 ft 238 kts 263°
2026-05-08 20:49 52.01416 0.56559 7955 ft 237 kts 266°
2026-05-08 20:50 52.01306 0.53881 7828 ft 238 kts 266°
2026-05-08 20:50 52.01194 0.51238 7705 ft 237 kts 266°
2026-05-08 20:50 52.01075 0.48561 7576 ft 238 kts 265°
2026-05-08 20:50 52.00954 0.45862 7446 ft 240 kts 265°
2026-05-08 20:51 52.00829 0.43147 7318 ft 240 kts 265°
2026-05-08 20:51 52.00705 0.40443 7193 ft 240 kts 265°
2026-05-08 20:51 52.00580 0.37775 7071 ft 239 kts 265°
2026-05-08 20:51 52.00454 0.35094 6910 ft 233 kts 265°
2026-05-08 20:52 52.00333 0.32516 6737 ft 225 kts 265°
2026-05-08 20:52 52.00212 0.29970 6580 ft 236 kts 265°
2026-05-08 20:52 51.99893 0.27352 6423 ft 238 kts 243°
2026-05-08 20:52 51.98887 0.25252 6270 ft 236 kts 222°
2026-05-08 20:53 51.97675 0.23483 6138 ft 236 kts 220°
2026-05-08 20:53 51.96450 0.21704 5979 ft 235 kts 221°
2026-05-08 20:53 51.95256 0.19904 5663 ft 235 kts 222°
2026-05-08 20:53 51.94057 0.18070 5316 ft 238 kts 222°
2026-05-08 20:54 51.92842 0.16199 4983 ft 241 kts 222°
2026-05-08 20:54 51.91636 0.14338 4677 ft 239 kts 222°
2026-05-08 20:54 51.90434 0.12481 4325 ft 238 kts 222°
2026-05-08 20:54 51.89252 0.10661 3999 ft 236 kts 222°
2026-05-08 20:55 51.88067 0.08827 3662 ft 235 kts 223°
2026-05-08 20:55 51.86887 0.07004 3361 ft 234 kts 223°
2026-05-08 20:55 51.85714 0.05195 3066 ft 231 kts 221°
2026-05-08 20:55 51.84545 0.03480 2976 ft 222 kts 220°
2026-05-08 20:56 51.83395 0.01824 2979 ft 221 kts 220°
2026-05-08 20:56 51.82241 0.00165 3000 ft 220 kts 220°
2026-05-08 20:56 51.81149 -0.01426 2991 ft 202 kts 220°
2026-05-08 20:56 51.80057 -0.02789 2969 ft 197 kts 199°
2026-05-08 20:57 51.78747 -0.02917 2983 ft 194 kts 162°
2026-05-08 20:57 51.77591 -0.01824 3003 ft 194 kts 143°
2026-05-08 20:57 51.76549 -0.00439 3000 ft 194 kts 129°
2026-05-08 20:57 51.76037 0.01534 2991 ft 193 kts 95°
2026-05-08 20:58 51.76094 0.03707 2998 ft 195 kts 82°
2026-05-08 20:58 51.76600 0.05714 2996 ft 196 kts 54°
2026-05-08 20:58 51.77537 0.07337 2995 ft 198 kts 44°
2026-05-08 20:58 51.78540 0.08729 2876 ft 182 kts 42°
2026-05-08 20:59 51.79473 0.10021 2652 ft 175 kts 43°
2026-05-08 20:59 51.80369 0.11319 2408 ft 170 kts 44°
2026-05-08 20:59 51.81225 0.12591 2152 ft 164 kts 45°
2026-05-08 20:59 51.82040 0.13807 1921 ft 153 kts 46°
2026-05-08 21:00 51.82788 0.14928 1718 ft 144 kts 46°
2026-05-08 21:00 51.83525 0.16031 1518 ft 143 kts 46°
2026-05-08 21:00 51.84247 0.17112 1330 ft 143 kts 46°
2026-05-08 21:00 51.84977 0.18205 1131 ft 142 kts 45°
2026-05-08 21:01 51.85713 0.19285 923 ft 142 kts 45°
2026-05-08 21:01 51.86429 0.20382 744 ft 142 kts 44°
2026-05-08 21:01 51.87150 0.21452 533 ft 140 kts 45°
2026-05-08 21:01 51.87856 0.22513 358 ft 140 kts 45°
2026-05-08 21:02 51.88485 0.23460 355 ft 97 kts 44°
2026-05-08 21:02 51.88836 0.23986 348 ft 50 kts 43°
2026-05-08 21:02 51.89017 0.24284 360 ft 34 kts 51°
2026-05-08 21:02 51.89114 0.24591 360 ft 22 kts 68°
2026-05-08 21:03 51.89154 0.24753 361 ft 9 kts 69°
2026-05-08 21:03 51.89172 0.24844 354 ft 8 kts 97°
2026-05-08 21:03 51.89159 0.24942 360 ft 11 kts 63°
2026-05-08 21:03 51.89214 0.25045 358 ft 13 kts 52°
2026-05-08 21:04 51.89244 0.25163 359 ft 6 kts 112°
2026-05-08 21:04 51.89208 0.25227 360 ft 9 kts 134°
2026-05-08 21:04 51.89158 0.25310 358 ft 11 kts 134°
2026-05-08 21:04 51.89124 0.25360 358 ft 2 kts 163°
2026-05-08 21:05 51.89109 0.25329 359 ft 5 kts 248°
2026-05-08 21:05 51.89087 0.25297 360 ft 0 kts 205°
2026-05-08 21:05 51.89085 0.25296 360 ft 1 kts 205°
2026-05-08 21:05 51.89082 0.25294 360 ft 0 kts 205°